Date,TemperatureHighF,TemperatureAvgF,TemperatureLowF,DewpointHighF,DewpointAvgF,DewpointLowF,HumidityHigh,HumidityAvg,HumidityLow,PressureMaxIn,PressureMinIn,WindSpeedMaxMPH,WindSpeedAvgMPH,GustSpeedMaxMPH,PrecipitationSumIn
2013-2-1,23.5,18.2,12.8,16.0,11.1,4.0,89,74,60,30.12,29.57,26,12,0,0.00
2013-2-2,19.9,13.4,5.0,13.0,7.4,1.0,85,77,60,30.14,29.97,10,0,0,0.00
2013-2-3,25.3,13.2,-0.4,16.0,6.9,-5.0,88,76,58,29.97,29.73,4,0,0,0.00
2013-2-4,19.1,16.3,8.6,16.0,11.0,5.0,89,80,62,29.89,29.75,20,5,0,0.00
2013-2-5,21.4,13.0,0.1,11.0,4.8,-4.0,86,71,52,29.97,29.82,2,0,0,0.00
2013-2-6,26.0,18.2,2.8,23.0,9.1,-2.0,91,70,37,30.33,29.83,26,6,0,0.00
2013-2-7,25.8,15.3,0.7,10.0,3.3,-4.0,84,61,40,30.47,30.22,7,0,0,0.00
2013-2-8,29.3,24.8,20.0,25.0,18.4,8.0,93,77,53,30.22,29.78,7,1,0,0.00
2013-2-9,21.0,13.9,-1.6,18.0,5.1,-7.0,88,69,48,30.36,29.86,22,8,0,0.00
2013-2-10,31.5,12.6,-7.0,13.0,0.8,-13.0,84,63,30,30.45,30.10,5,0,0,0.00
2013-2-11,41.1,33.0,25.7,37.0,26.0,7.0,94,77,43,30.09,29.55,14,1,0,0.26
2013-2-12,33.4,31.8,29.8,30.0,27.4,24.0,94,84,71,29.87,29.62,18,7,0,0.02
2013-2-13,35.8,28.8,20.2,25.0,21.2,17.0,88,74,53,29.83,29.67,6,1,0,0.04
2013-2-14,35.5,27.6,17.2,31.0,21.7,15.0,94,79,61,29.89,29.70,4,0,0,0.03
2013-2-15,38.3,33.7,28.8,33.0,27.5,22.0,96,79,56,29.95,29.75,17,3,0,0.07
2013-2-16,29.0,23.5,16.5,22.0,10.7,3.0,79,59,38,29.97,29.83,16,5,0,0.00
2013-2-17,17.2,12.5,8.8,5.0,0.8,-2.0,77,60,43,30.01,29.78,30,11,0,0.00
2013-2-18,22.4,12.7,3.0,9.0,1.4,-7.0,72,61,51,30.23,30.02,16,5,0,0.00
2013-2-19,32.2,27.1,17.5,31.0,18.5,5.0,95,72,53,30.04,29.58,12,0,0,0.00
2013-2-20,26.4,22.3,20.0,21.0,16.6,13.0,89,79,62,29.88,29.66,20,8,0,0.00
2013-2-21,19.1,14.4,10.2,16.0,8.6,3.0,89,77,70,30.38,29.86,26,11,0,0.00
2013-2-22,33.4,23.0,8.3,24.0,16.1,5.0,88,76,60,30.39,30.10,4,0,0,0.10
2013-2-23,35.2,33.0,31.5,33.0,28.9,23.0,96,85,68,30.10,29.78,4,0,0,0.21
2013-2-24,33.5,30.5,28.7,33.0,27.5,24.0,96,88,74,29.94,29.76,15,4,0,0.04
2013-2-25,36.9,30.9,21.0,31.0,26.5,19.0,94,84,71,30.20,29.94,16,3,0,0.21
2013-2-26,40.8,30.6,16.2,28.0,22.9,14.0,92,74,56,30.22,29.89,10,2,0,0.03
2013-2-27,41.5,35.8,31.9,36.0,32.4,28.0,96,87,72,29.91,29.48,13,2,0,1.00
2013-2-28,36.9,33.6,32.1,34.0,32.0,31.0,97,94,84,29.58,29.47,4,0,0,0.31